When you browse on this site, cookies collect data to enhance your experience and personalize the content and advertising you see.
Visit our Privacy Policy to learn more. By continuing to use the site, you agree to this use of cookies and data.
  • En España
  • Lista de países
  • Para 7 días
  • Temperatura del agua
  • Mapa Satelital
  • El tiempo en el mapa
  • Informadores
  • user-avatar
    Iniciar sesión

    Tiempo cada hora Strzyzawa

    Hoy, 16 Febrero, Sábado

    Tiempo Temperatura Precipitaciones Viento Presión Humedad
    00:00 +2°C° 0 mm 2 mps 769 mmHg 90%
    01:00 +2°C° 0 mm 2 mps 769 mmHg 89%
    02:00 +2°C° 0 mm 2 mps 769 mmHg 87%
    03:00 +2°C° 0 mm 2 mps 769 mmHg 86%
    04:00 +2°C° 0 mm 2 mps 768 mmHg 85%
    05:00 +2°C° 0 mm 2 mps 768 mmHg 84%
    06:00 +2°C° 0 mm 2 mps 768 mmHg 83%
    07:00 +2°C° 0 mm 2 mps 768 mmHg 83%
    08:00 +2°C° 0 mm 3 mps 767 mmHg 76%
    09:00 +3°C° 0 mm 3 mps 767 mmHg 70%
    10:00 +5°C° 0 mm 4 mps 767 mmHg 63%
    11:00 +6°C° 0 mm 4 mps 767 mmHg 60%
    12:00 +7°C° 0 mm 4 mps 766 mmHg 56%
    13:00 +8°C° 0 mm 4 mps 766 mmHg 53%
    14:00 +8°C° 0 mm 4 mps 766 mmHg 54%
    15:00 +8°C° 0 mm 4 mps 765 mmHg 56%
    16:00 +8°C° 0 mm 4 mps 765 mmHg 57%
    17:00 +7°C° 0 mm 4 mps 765 mmHg 60%
    18:00 +6°C° 0 mm 4 mps 764 mmHg 64%
    19:00 +5°C° 0 mm 4 mps 764 mmHg 68%
    20:00 +5°C° 0 mm 4 mps 764 mmHg 69%
    21:00 +5°C° 0 mm 4 mps 764 mmHg 71%
    22:00 +4°C° 0 mm 4 mps 764 mmHg 73%
    23:00 +4°C° 0 mm 4 mps 764 mmHg 75%

    Mañana, 17 Febrero, Domingo

    Tiempo Temperatura Precipitaciones Viento Presión Humedad
    00:00 +3°C° 0 mm 3 mps 764 mmHg 78%
    01:00 +3°C° 0 mm 3 mps 764 mmHg 80%
    02:00 +3°C° 0 mm 3 mps 764 mmHg 82%
    03:00 +2°C° 0 mm 3 mps 764 mmHg 84%
    04:00 +2°C° 0 mm 3 mps 764 mmHg 86%
    05:00 +2°C° 0 mm 3 mps 764 mmHg 88%
    06:00 +1°C° 0 mm 3 mps 764 mmHg 89%
    07:00 +1°C° 0 mm 3 mps 764 mmHg 90%
    08:00 +2°C° 0 mm 3 mps 764 mmHg 88%
    09:00 +3°C° 0 mm 3 mps 764 mmHg 86%
    10:00 +4°C° 0 mm 3 mps 765 mmHg 85%
    11:00 +4°C° 0 mm 3 mps 765 mmHg 84%
    12:00 +5°C° 0 mm 3 mps 765 mmHg 84%
    13:00 +7°C° 0 mm 3 mps 765 mmHg 83%
    14:00 +7°C° 0 mm 2 mps 765 mmHg 84%
    15:00 +7°C° 0 mm 2 mps 765 mmHg 85%
    16:00 +7°C° 0 mm 2 mps 764 mmHg 86%
    17:00 +7°C° 0 mm 1 mps 765 mmHg 87%
    18:00 +7°C° 0 mm 1 mps 765 mmHg 89%
    19:00 +7°C° 0 mm 1 mps 765 mmHg 90%
    20:00 +5°C° 0 mm 0 mps 765 mmHg 91%
    21:00 +5°C° 0 mm 0 mps 765 mmHg 91%
    22:00 +4°C° 0 mm 0 mps 765 mmHg 91%
    23:00 +4°C° 0 mm 0 mps 765 mmHg 92%

    Pasado mañana, 18 Febrero, Lunes

    Tiempo Temperatura Precipitaciones Viento Presión Humedad
    00:00 +3°C° 0 mm 0 mps 765 mmHg 92%
    01:00 +3°C° 0 mm 0 mps 765 mmHg 93%
    02:00 +4°C° 0 mm 1 mps 765 mmHg 93%
    03:00 +4°C° 0 mm 1 mps 764 mmHg 94%
    04:00 +4°C° 0 mm 1 mps 764 mmHg 95%
    05:00 +3°C° 0 mm 1 mps 764 mmHg 95%
    06:00 +2°C° 0 mm 2 mps 764 mmHg 95%
    07:00 +2°C° 0 mm 2 mps 764 mmHg 96%
    08:00 +3°C° 0 mm 2 mps 764 mmHg 91%
    09:00 +4°C° 0 mm 3 mps 764 mmHg 87%
    10:00 +5°C° 0 mm 3 mps 764 mmHg 83%
    11:00 +7°C° 0 mm 3 mps 764 mmHg 77%
    12:00 +8°C° 0 mm 3 mps 764 mmHg 71%
    13:00 +9°C° 0 mm 3 mps 764 mmHg 65%
    14:00 +9°C° 0 mm 3 mps 763 mmHg 65%
    15:00 +9°C° 0 mm 3 mps 763 mmHg 65%
    16:00 +9°C° 0 mm 3 mps 762 mmHg 65%
    17:00 +8°C° 0 mm 3 mps 762 mmHg 69%
    18:00 +7°C° 0 mm 3 mps 762 mmHg 73%
    19:00 +4°C° 0 mm 3 mps 762 mmHg 78%
    20:00 +4°C° 0 mm 3 mps 762 mmHg 79%
    21:00 +3°C° 0 mm 3 mps 762 mmHg 80%
    22:00 +3°C° 0 mm 3 mps 762 mmHg 80%
    23:00 +3°C° 0 mm 3 mps 761 mmHg 81%

    19 Febrero, Martes

    Tiempo Temperatura Precipitaciones Viento Presión Humedad
    00:00 +2°C° 0 mm 3 mps 761 mmHg 81%
    01:00 +2°C° 0 mm 3 mps 761 mmHg 82%
    02:00 +2°C° 0 mm 3 mps 760 mmHg 83%
    03:00 +2°C° 0 mm 3 mps 760 mmHg 83%
    04:00 +1°C° 0 mm 3 mps 760 mmHg 84%
    05:00 +1°C° 0 mm 3 mps 759 mmHg 84%
    06:00 +1°C° 0 mm 3 mps 759 mmHg 84%
    07:00 +1°C° 0 mm 3 mps 759 mmHg 84%
    08:00 +2°C° 0 mm 3 mps 759 mmHg 80%
    09:00 +3°C° 0 mm 4 mps 759 mmHg 76%
    10:00 +4°C° 0 mm 4 mps 759 mmHg 72%
    11:00 +6°C° 0 mm 4 mps 758 mmHg 69%
    12:00 +7°C° 0 mm 5 mps 758 mmHg 67%
    13:00 +8°C° 0 mm 5 mps 758 mmHg 64%
    14:00 +8°C° 0 mm 5 mps 757 mmHg 64%
    15:00 +8°C° 0 mm 5 mps 757 mmHg 65%
    16:00 +8°C° 0 mm 4 mps 757 mmHg 66%
    17:00 +8°C° 0.4 mm 5 mps 757 mmHg 72%
    18:00 +7°C° 0.4 mm 5 mps 757 mmHg 78%
    19:00 +6°C° 0.4 mm 5 mps 758 mmHg 84%
    20:00 +6°C° 0 mm 5 mps 758 mmHg 85%
    21:00 +5°C° 0 mm 5 mps 758 mmHg 87%
    22:00 +3°C° 0 mm 5 mps 758 mmHg 88%
    23:00 +3°C° 0 mm 5 mps 758 mmHg 87%

    20 Febrero, Miércoles

    Tiempo Temperatura Precipitaciones Viento Presión Humedad
    00:00 +3°C° 0 mm 5 mps 759 mmHg 86%
    01:00 +3°C° 0 mm 5 mps 759 mmHg 84%
    02:00 +3°C° 0 mm 6 mps 759 mmHg 84%
    03:00 +3°C° 0 mm 6 mps 759 mmHg 84%
    04:00 +3°C° 0 mm 6 mps 759 mmHg 84%
    05:00 +2°C° 0 mm 6 mps 759 mmHg 83%
    06:00 +2°C° 0 mm 6 mps 759 mmHg 82%
    07:00 +2°C° 0 mm 6 mps 759 mmHg 82%
    08:00 +3°C° 0 mm 6 mps 760 mmHg 79%
    09:00 +3°C° 0 mm 6 mps 760 mmHg 77%
    10:00 +3°C° 0 mm 7 mps 760 mmHg 75%
    11:00 +3°C° 0 mm 6 mps 761 mmHg 74%
    12:00 +4°C° 0 mm 6 mps 761 mmHg 74%
    13:00 +4°C° 0 mm 6 mps 761 mmHg 74%
    14:00 +4°C° 0 mm 6 mps 761 mmHg 72%
    15:00 +6°C° 0 mm 5 mps 761 mmHg 70%
    16:00 +6°C° 0 mm 5 mps 761 mmHg 68%
    17:00 +6°C° 0 mm 4 mps 761 mmHg 72%
    18:00 +5°C° 0 mm 4 mps 761 mmHg 76%
    19:00 +5°C° 0 mm 3 mps 762 mmHg 80%
    20:00 +5°C° 0.1 mm 4 mps 762 mmHg 82%
    21:00 +5°C° 0.1 mm 4 mps 762 mmHg 83%
    22:00 +5°C° 0.1 mm 4 mps 762 mmHg 85%
    23:00 +5°C° 0.2 mm 4 mps 762 mmHg 86%

    21 Febrero, Jueves

    Tiempo Temperatura Precipitaciones Viento Presión Humedad
    00:00 +5°C° 0.2 mm 4 mps 762 mmHg 87%
    01:00 +5°C° 0.2 mm 4 mps 761 mmHg 87%
    02:00 +5°C° 0.3 mm 4 mps 761 mmHg 88%
    03:00 +5°C° 0.3 mm 4 mps 761 mmHg 89%
    04:00 +5°C° 0.3 mm 4 mps 760 mmHg 90%
    05:00 +5°C° 0.2 mm 5 mps 760 mmHg 90%
    06:00 +5°C° 0.2 mm 5 mps 760 mmHg 91%
    07:00 +5°C° 0.2 mm 5 mps 760 mmHg 91%
    08:00 +6°C° 0.1 mm 5 mps 760 mmHg 89%
    09:00 +6°C° 0.1 mm 5 mps 760 mmHg 88%
    10:00 +7°C° 0.1 mm 6 mps 760 mmHg 86%
    11:00 +7°C° 0.1 mm 6 mps 760 mmHg 85%
    12:00 +7°C° 0.1 mm 6 mps 759 mmHg 84%
    13:00 +7°C° 0.1 mm 6 mps 759 mmHg 83%
    14:00 +7°C° 1 mm 6 mps 759 mmHg 85%
    15:00 +5°C° 1 mm 6 mps 759 mmHg 87%
    16:00 +6°C° 1 mm 5 mps 758 mmHg 88%
    17:00 +6°C° 0.2 mm 5 mps 758 mmHg 88%
    18:00 +6°C° 0.2 mm 5 mps 758 mmHg 88%
    19:00 +6°C° 0.2 mm 4 mps 758 mmHg 88%
    20:00 +6°C° 0.1 mm 4 mps 759 mmHg 89%
    21:00 +6°C° 0.1 mm 4 mps 759 mmHg 89%
    22:00 +6°C° 0.1 mm 4 mps 759 mmHg 89%
    23:00 +5°C° 0.1 mm 4 mps 760 mmHg 88%
    Mostrar más